Regional Weather Roundup
Issued by NWS

Home | Current Version | Previous Version | Text Only | Print | Product List | Glossary Off
Versions: 1 2 3 4 5 6 7 8 9 10 11 12 13 14 15 16 17 18 19 20 21 22 23 24 25 26 27 28 29 30 31 32 33 34 35 36 37 38 39 40 41 42 43 44 45 46 47 48 49 50

000
ASUS43 KMKX 211820
RWRWI

WISCONSIN REGIONAL WEATHER ROUNDUP
NATIONAL WEATHER SERVICE MILWAUKEE/SULLIVAN WI
100 PM CDT SAT APR 21 2018

NOTE: "FAIR" INDICATES FEW OR NO CLOUDS BELOW 12,000 FEET WITH NO
SIGNIFICANT WEATHER AND/OR OBSTRUCTIONS TO VISIBILITY.

WIZ001-002-006>008-014>016-023>028-211900-
NORTHWEST WISCONSIN

CITY           SKY/WX    TMP DP  RH WIND       PRES   REMARKS
SUPERIOR ARPT  FAIR      56  16  20 CALM      30.37F
6HR MIN TEMP:  32; 6HR MAX TEMP:  57;

ASHLAND        FAIR      56  10  16 CALM      30.38F
6HR MIN TEMP:  31; 6HR MAX TEMP:  57;

HAYWARD        FAIR      52  17  25 S6        30.38F
6HR MIN TEMP:  24; 6HR MAX TEMP:  54;

SIREN          FAIR      55  17  22 E3        30.38F
6HR MIN TEMP:  25; 6HR MAX TEMP:  56;

CUMBERLAND     FAIR      46  18  31 CALM      30.39F
RICE LAKE      FAIR      51  20  30 W5        30.40F
6HR MIN TEMP:  29; 6HR MAX TEMP:  51;

CHETEK         FAIR      53  18  24 SW6       30.39F
6HR MIN TEMP:  28; 6HR MAX TEMP:  53;

LADYSMITH      FAIR      54  21  26 SE3       30.40F
6HR MIN TEMP:  29; 6HR MAX TEMP:  54;

EAU CLAIRE     FAIR      55  28  35 SW6       30.38F
6HR MIN TEMP:  32; 6HR MAX TEMP:  57;

MENOMONIE      FAIR      56  28  34 CALM      30.38F
6HR MIN TEMP:  33; 6HR MAX TEMP:  55;

NEW RICHMOND   FAIR      52  18  26 E3        30.40F
6HR MIN TEMP:  31; 6HR MAX TEMP:  52;

OSCEOLA        FAIR      53  24  31 S6        30.42F
6HR MIN TEMP:  30; 6HR MAX TEMP:  53;

$$

WIZ003>005-009-010-017-018-211900-
NORTH CENTRAL WISCONSIN

CITY           SKY/WX    TMP DP  RH WIND       PRES   REMARKS
MANITOWISH WTR FAIR      52  11  19 CALM      30.37F
6HR MIN TEMP:  23; 6HR MAX TEMP:  52;

ARBOR VITAE    FAIR      52  15  22 SW7       30.37F
6HR MIN TEMP:  29; 6HR MAX TEMP:  56;

WOODRUFF       FAIR      52  15  22 SW7       30.37F
6HR MIN TEMP:  29; 6HR MAX TEMP:  56;

RHINELANDER    FAIR      53  15  22 CALM      30.38F
6HR MIN TEMP:  29; 6HR MAX TEMP:  54;

EAGLE RIVER    FAIR      53   9  16 NW5       30.36F
6HR MIN TEMP:  24; 6HR MAX TEMP:  54;

LAND O LAKES   FAIR      57   6  13 CALM      30.37F
6HR MIN TEMP:  23; 6HR MAX TEMP:  56;

PHILLIPS       FAIR      53  14  21 W5        30.37F
6HR MIN TEMP:  26; 6HR MAX TEMP:  52;

TOMAHAWK       FAIR      53  17  23 SW6       30.38F
6HR MIN TEMP:  25; 6HR MAX TEMP:  54;

MEDFORD        FAIR      49  20  32 S5        30.39F
6HR MIN TEMP:  28; 6HR MAX TEMP:  49;

MERRILL          N/A     54  23  30 SW7       30.39F
6HR MIN TEMP:  28; 6HR MAX TEMP:  54;

$$

WIZ029-030-035-036-043>047-211900-
CENTRAL WISCONSIN

CITY           SKY/WX    TMP DP  RH WIND       PRES   REMARKS
WAUSAU         FAIR      53  23  31 SW3       30.37F
6HR MIN TEMP:  29; 6HR MAX TEMP:  53;

MOSINEE        MOSUNNY   54  23  30 SW6       30.40F
MARSHFIELD     FAIR      52  23  32 NW5       30.39F
6HR MIN TEMP:  34; 6HR MAX TEMP:  52;

STEVENS POINT  FAIR      51  19  28 S8        30.40F
6HR MIN TEMP:  28; 6HR MAX TEMP:  53;

WAUPACA        FAIR      58  16  19 S6        30.41F
6HR MIN TEMP:  33; 6HR MAX TEMP:  58;

WAUTOMA        FAIR      55  26  32 SW8       30.41
6HR MIN TEMP:  30; 6HR MAX TEMP:  55;

WISC RAPIDS    FAIR      53  24  32 NW6       30.41F
6HR MIN TEMP:  31; 6HR MAX TEMP:  54;

CAMP DOUGLAS   PTSUNNY   55  27  33 W8        30.41F
$$

WIZ011>013-019>022-031-037>040-048>050-211900-
NORTHEAST WISCONSIN

CITY           SKY/WX    TMP DP  RH WIND       PRES   REMARKS
ANTIGO         FAIR      50  25  36 SW7       30.39F
6HR MIN TEMP:  30; 6HR MAX TEMP:  51;

SHAWANO        FAIR      58  16  19 SW6       30.40F
6HR MIN TEMP:  32; 6HR MAX TEMP:  59;

OCONTO         FAIR      55  15  21 S7        30.40F
6HR MIN TEMP:  30; 6HR MAX TEMP:  55;

STURGEON BAY   FAIR      53  19  26 SW9       30.41F
6HR MIN TEMP:  36; 6HR MAX TEMP:  54;

GREEN BAY      FAIR      50  24  36 S8        30.42F
6HR MIN TEMP:  33; 6HR MAX TEMP:  50;

MANITOWOC      FAIR      54  19  25 CALM      30.43F
6HR MIN TEMP:  31; 6HR MAX TEMP:  54;

APPLETON       PTSUNNY   52  18  25 SW8       30.41F
CLINTONVILLE   FAIR      54  19  25 S5        30.41S
6HR MIN TEMP:  30; 6HR MAX TEMP:  53;

OSHKOSH        FAIR      46  26  45 S9        30.42F
6HR MIN TEMP:  32; 6HR MAX TEMP:  48;

$$

WIZ032>034-041-042-053>061-211900-
SOUTHWEST WISCONSIN

CITY           SKY/WX    TMP DP  RH WIND       PRES   REMARKS
LA CROSSE      FAIR      56  33  42 S16       30.41F
6HR MIN TEMP:  37; 6HR MAX TEMP:  57;

SPARTA         FAIR      56  30  37 SW5       30.42F
6HR MIN TEMP:  30; 6HR MAX TEMP:  56;

VIROQUA        CLOUDY    47  37  66 CALM      30.42F
BOSCOBEL       CLOUDY    53  36  52 CALM      30.43F
6HR MIN TEMP:  37; 6HR MAX TEMP:  53; 6HR PCP: TRACE;

PRAIRIE DU CHI CLOUDY    50  37  59 NE3       30.43S
6HR MIN TEMP:  38; 6HR MAX TEMP:  51; 6HR PCP:  0.01;

PLATTEVILLE    CLOUDY    50  38  63 E9        30.43F
6HR MIN TEMP:  42; 6HR MAX TEMP:  50;

$$

WIZ056-057-062-063-064-067-068-211900-
SOUTH CENTRAL WISCONSIN

CITY           SKY/WX    TMP DP  RH WIND       PRES   REMARKS
REEDSBURG      CLOUDY    52  32  45 W10       30.42F
6HR MIN TEMP:  31; 6HR MAX TEMP:  53;

BARABOO/DELLS  FAIR      51  25  36 SW9       30.42S
6HR MIN TEMP:  32; 6HR MAX TEMP:  52;

LONE ROCK      CLOUDY    52  33  48 W7        30.44S
6HR MIN TEMP:  36; 6HR MAX TEMP:  53;

MINERAL POINT  CLOUDY    52  34  50 E5        30.42F
MADISON        CLOUDY    52  27  38 SW8       30.43S
6HR MIN TEMP:  34; 6HR MAX TEMP:  54;

MIDDLETON      CLOUDY    53  31  43 SW9       30.44R
6HR MIN TEMP:  35; 6HR MAX TEMP:  56;

WATERTOWN      PTSUNNY   51  24  34 CALM      30.43F
6HR MIN TEMP:  31; 6HR MAX TEMP:  51;

MONROE         PTSUNNY   50  32  50 SE3       30.42F
JANESVILLE     CLOUDY    52  32  46 SW9       30.43F
$$

WIZ051-052-058>065-066-070>072-211900-
SOUTHEAST WISCONSIN

CITY           SKY/WX    TMP DP  RH WIND       PRES   REMARKS
MILWAUKEE      PTSUNNY   53  20  27 S3        30.44F
6HR MIN TEMP:  36; 6HR MAX TEMP:  53;

WAUKESHA       MOSUNNY   48  18  29 CALM      30.44F
MILWAUKEE/TIMM SUNNY     52  14  22 CALM      30.45F
RACINE         FAIR      53  17  24 SE3       30.45F
6HR MIN TEMP:  34; 6HR MAX TEMP:  53;

BURLINGTON     FAIR      53  24  32 CALM      30.43F
6HR MIN TEMP:  32; 6HR MAX TEMP:  53;

KENOSHA        FAIR      56  22  26 NE3       30.43F
6HR MIN TEMP:  36; 6HR MAX TEMP:  56;

FOND DU LAC    FAIR      48  17  29 S6        30.42F
6HR MIN TEMP:  32; 6HR MAX TEMP:  49;

SHEBOYGAN      FAIR      54  24  31 S6        30.43F
6HR MIN TEMP:  32; 6HR MAX TEMP:  54;

WEST BEND      FAIR      54  16  22 W6        30.43F
JUNEAU         FAIR      48  22  35 CALM      30.44F
6HR MIN TEMP:  34; 6HR MAX TEMP:  48;

$$

LSZ147-162-211900-
LAKE SUPERIOR

STATION/POSITION TIME  TEMP    WIND        PRES    WAVE
                       AIR SEA DIR/SP/G            HT/PER
                 (UTC) (F)     (DEG/KT/KT) (MB)    (FT/S)
DEVILS ISLAND    1800   43     260/  7/ 10 1029.6F
SAXON HARBOR     1730   47      70/  2/  3 1028.8S
$$

LMZ867-665-643>646-211900-
LAKE MICHIGAN

STATION/POSITION TIME  TEMP    WIND        PRES    WAVE
                       AIR SEA DIR/SP/G            HT/PER
                 (UTC) (F)     (DEG/KT/KT) (MB)    (FT/S)
NORTHPORT PIER   1740



USA.gov is the U.S. government's official web portal to all federal, state and local government web resources and services.